Location: Ajisawe
(8.4333°N, 4.3833°E)
Time: 03:23:24
(UTC+00:00)

STARLINK-1146 - Pass Details

Date: 09 October 2020
Orbit: 549 x 550 km, 53.0° (Epoch: 21 October)

Event Time Altitude Azimuth Distance (km) Brightness Sun altitude
Rises 18:56:53 0° 299° (WNW) 2,703 8.1 -22.5°
Reaches altitude 10° 18:59:41 10° 280° (W) 1,811 7.3 -23.2°
Maximum altitude 19:02:27 18° 237° (WSW) 1,398 6.4 -23.9°
Drops below altitude 10° 19:05:14 10° 194° (SSW) 1,813 6.4 -24.5°
Enters shadow 19:07:30 - 177° (S) 2,510 7.0 -25.1°
